Location: PSU-Greenbush Astrophysical Observatory
(37.5140°N, 94.9880°W)
Time: 16:25:20
(UTC-05:00)

BEESAT - Pass Details

Date: 22 February 2020
Orbit: 700 x 708 km, 98.6° (Epoch: 09 April)

Event Time Altitude Azimuth Distance (km) Brightness Sun altitude
Rises 06:15:48 0° 200° (SSW) 3,085 ? -9.7°
Reaches altitude 10° 06:18:33 10° 217° (SW) 2,171 ? -9.2°
Maximum altitude 06:22:06 21° 265° (W) 1,569 ? -8.5°
Drops below altitude 10° 06:25:40 10° 314° (NW) 2,179 ? -7.8°
Sets 06:28:28 0° 330° (NNW) 3,101 ? -7.2°
